| time (UTC) | temp F | wind direction | speed MPH | gust MPH | rain 1hr in | rain 24hr in | rain mn in | humidity % | barometer mb |
| 20260905163014 | 86 | 340 | 2.0 | 4.0 | 0.00 | 0.00 | 0.00 | 74 | 1013.7 |
| 20260905161014 | 86 | 305 | 2.0 | 3.0 | 0.00 | 0.00 | 0.00 | 76 | 1013.6 |
| 20260905160015 | 85 | 299 | 2.0 | 6.0 | 0.00 | 0.00 | 0.00 | 77 | 1013.6 |
| 20260905155014 | 84 | 265 | 2.0 | 6.0 | 0.00 | 0.00 | 0.00 | 77 | 1013.6 |
| 20260905154015 | 84 | 257 | 2.0 | 8.0 | 0.00 | 0.00 | 0.00 | 78 | 1013.8 |
| 20260905152015 | 83 | 247 | 2.0 | 4.0 | 0.00 | 0.00 | 0.00 | 81 | 1013.6 |
| 20260905151014 | 82 | 257 | 2.0 | 7.0 | 0.00 | 0.00 | 0.00 | 84 | 1013.5 |
| 20260905145015 | 81 | 253 | 2.0 | 7.0 | 0.00 | 0.00 | 0.00 | 86 | 1013.5 |
| 20260905144015 | 81 | 251 | 2.0 | 7.0 | 0.00 | 0.00 | 0.00 | 88 | 1013.5 |
| 20260905143015 | 80 | 261 | 1.0 | 6.0 | 0.00 | 0.00 | 0.00 | 88 | 1013.4 |
| 20260905142014 | 80 | 246 | 1.0 | 4.0 | 0.00 | 0.00 | 0.00 | 89 | 1013.5 |
| 20260905141014 | 79 | 242 | 1.0 | 3.0 | 0.00 | 0.00 | 0.00 | 90 | 1013.4 |
| 20260905140015 | 79 | 259 | 1.0 | 3.0 | 0.00 | 0.00 | 0.00 | 90 | 1013.3 |
| 20260905135014 | 79 | 238 | 1.0 | 3.0 | 0.00 | 0.00 | 0.00 | 91 | 1013.4 |
| 20260905134015 | 78 | 258 | 0.0 | 3.0 | 0.00 | 0.00 | 0.00 | 91 | 1013.3 |
| 20260905132014 | 77 | 234 | 1.0 | 5.0 | 0.00 | 0.00 | 0.00 | 91 | 1013.3 |
| 20260905131015 | 77 | 228 | 0.0 | 3.0 | 0.00 | 0.00 | 0.00 | 91 | 1013.2 |
| 20260905130014 | 77 | 0 | 0.0 | 3.0 | 0.00 | 0.00 | 0.00 | 91 | 1013.2 |
| 20260905125015 | 76 | 0 | 0.0 | 4.0 | 0.00 | 0.00 | 0.00 | 90 | 1013.1 |
| 20260905124015 | 76 | 0 | 0.0 | 1.0 | 0.00 | 0.00 | 0.00 | 90 | 1013.0 |
| 20260905123014 | 76 | 0 | 0.0 | 0.0 | 0.00 | 0.00 | 0.00 | 90 | 1012.8 |
| 20260905121014 | 76 | 0 | 0.0 | 0.0 | 0.00 | 0.00 | 0.00 | 90 | 1013.0 |
| 20260905120014 | 76 | 0 | 0.0 | 0.0 | 0.00 | 0.00 | 0.00 | 90 | 1012.9 |
| 20260905114014 | 76 | 0 | 0.0 | 0.0 | 0.00 | 0.00 | 0.00 | 90 | 1012.6 |
| 20260905113016 | 76 | 0 | 0.0 | 2.0 | 0.00 | 0.00 | 0.00 | 90 | 1012.3 |
| 20260905112014 | 76 | 0 | 0.0 | 2.0 | 0.00 | 0.00 | 0.00 | 89 | 1012.3 |
| 20260905110014 | 76 | 0 | 0.0 | 3.0 | 0.00 | 0.00 | 0.00 | 89 | 1012.3 |
| 20260905105014 | 76 | 0 | 0.0 | 2.0 | 0.00 | 0.00 | 0.00 | 88 | 1012.4 |
| 20260905104014 | 76 | 0 | 0.0 | 1.0 | 0.00 | 0.00 | 0.00 | 88 | 1012.5 |
| 20260905103014 | 76 | 0 | 0.0 | 0.0 | 0.00 | 0.00 | 0.00 | 88 | 1012.5 |
| 20260905102015 | 76 | 0 | 0.0 | 0.0 | 0.00 | 0.00 | 0.00 | 88 | 1012.4 |
| 20260905101014 | 77 | 0 | 0.0 | 0.0 | 0.00 | 0.00 | 0.00 | 87 | 1012.3 |
| 20260905100014 | 77 | 0 | 0.0 | 0.0 | 0.00 | 0.00 | 0.00 | 87 | 1012.3 |
| 20260905095014 | 77 | 0 | 0.0 | 0.0 | 0.00 | 0.00 | 0.00 | 87 | 1012.3 |
| 20260905094014 | 77 | 0 | 0.0 | 0.0 | 0.00 | 0.00 | 0.00 | 87 | 1012.3 |
| 20260905091014 | 77 | 0 | 0.0 | 0.0 | 0.00 | 0.00 | 0.00 | 87 | 1011.9 |
| 20260905085014 | 77 | 0 | 0.0 | 1.0 | 0.00 | 0.00 | 0.00 | 86 | 1011.8 |
| 20260905084014 | 78 | 0 | 0.0 | 0.0 | 0.00 | 0.00 | 0.00 | 86 | 1011.8 |
| 20260905082014 | 78 | 0 | 0.0 | 0.0 | 0.00 | 0.00 | 0.00 | 85 | 1011.9 |
| 20260905081014 | 78 | 0 | 0.0 | 0.0 | 0.00 | 0.00 | 0.00 | 85 | 1012.0 |
| 20260905075014 | 78 | 0 | 0.0 | 0.0 | 0.00 | 0.00 | 0.00 | 85 | 1012.1 |
| 20260905074014 | 78 | 0 | 0.0 | 0.0 | 0.00 | 0.00 | 0.00 | 85 | 1012.0 |
| 20260905072014 | 79 | 0 | 0.0 | 0.0 | 0.00 | 0.00 | 0.00 | 84 | 1012.3 |
| 20260905064014 | 79 | 0 | 0.0 | 0.0 | 0.00 | 0.00 | 0.00 | 83 | 1012.6 |
| 20260905063014 | 80 | 0 | 0.0 | 0.0 | 0.00 | 0.00 | 0.00 | 83 | 1012.6 |
| 20260905062015 | 80 | 0 | 0.0 | 0.0 | 0.00 | 0.00 | 0.00 | 82 | 1012.5 |
| 20260905061014 | 80 | 0 | 0.0 | 0.0 | 0.00 | 0.00 | 0.00 | 82 | 1012.3 |
| 20260905060015 | 80 | 0 | 0.0 | 0.0 | 0.00 | 0.00 | 0.00 | 81 | 1012.4 |
| 20260905055014 | 80 | 0 | 0.0 | 0.0 | 0.00 | 0.00 | 0.00 | 81 | 1012.3 |
| 20260905054013 | 81 | 0 | 0.0 | 0.0 | 0.00 | 0.00 | 0.00 | 81 | 1012.2 |
| 20260905053014 | 81 | 0 | 0.0 | 0.0 | 0.00 | 0.00 | 0.00 | 81 | 1012.1 |
| 20260905052014 | 81 | 0 | 0.0 | 1.0 | 0.00 | 0.00 | 0.00 | 81 | 1012.2 |
| 20260905051014 | 81 | 0 | 0.0 | 1.0 | 0.00 | 0.00 | 0.00 | 80 | 1012.2 |
| 20260905050014 | 81 | 0 | 0.0 | 2.0 | 0.00 | 0.00 | 0.00 | 80 | 1012.1 |
| 20260905045014 | 81 | 0 | 0.0 | 1.0 | 0.00 | 0.00 | 0.00 | 79 | 1012.2 |
| 20260905044014 | 82 | 0 | 0.0 | 0.0 | 0.00 | 0.00 | 0.00 | 79 | 1012.2 |
| 20260905042015 | 82 | 0 | 0.0 | 0.0 | 0.00 | 0.00 | 0.00 | 78 | 1012.3 |
| 20260905040014 | 82 | 0 | 0.0 | 0.0 | 0.00 | 0.00 | 0.00 | 78 | 1012.2 |
| 20260905035014 | 83 | 0 | 0.0 | 0.0 | 0.00 | 0.00 | 0.00 | 77 | 1012.3 |
| 20260905034014 | 83 | 0 | 0.0 | 1.0 | 0.00 | 0.00 | 0.00 | 77 | 1012.5 |
| 20260905033013 | 83 | 0 | 0.0 | 0.0 | 0.00 | 0.00 | 0.00 | 77 | 1012.5 |
| 20260905032014 | 84 | 0 | 0.0 | 0.0 | 0.00 | 0.00 | 0.00 | 76 | 1012.4 |
| 20260905031014 | 84 | 0 | 0.0 | 0.0 | 0.00 | 0.00 | 0.00 | 76 | 1012.2 |
| 20260905030013 | 84 | 0 | 0.0 | 0.0 | 0.00 | 0.00 | 0.00 | 75 | 1012.3 |
| 20260905025014 | 84 | 0 | 0.0 | 0.0 | 0.00 | 0.00 | 0.00 | 74 | 1012.1 |
| 20260905024014 | 85 | 0 | 0.0 | 0.0 | 0.00 | 0.00 | 0.00 | 74 | 1012.1 |
| 20260905022015 | 85 | 0 | 0.0 | 0.0 | 0.00 | 0.00 | 0.00 | 72 | 1011.8 |
| 20260905021013 | 85 | 0 | 0.0 | 2.0 | 0.00 | 0.00 | 0.00 | 73 | 1011.8 |
| 20260905020014 | 86 | 0 | 0.0 | 0.0 | 0.00 | 0.00 | 0.00 | 73 | 1011.6 |
| 20260905015013 | 86 | 0 | 0.0 | 0.0 | 0.00 | 0.00 | 0.00 | 72 | 1011.4 |
| 20260905014014 | 86 | 0 | 0.0 | 0.0 | 0.00 | 0.00 | 0.00 | 72 | 1011.3 |
| 20260905013014 | 86 | 0 | 0.0 | 0.0 | 0.00 | 0.00 | 0.00 | 71 | 1011.2 |
| 20260905012014 | 86 | 0 | 0.0 | 0.0 | 0.00 | 0.00 | 0.00 | 72 | 1011.1 |
| 20260905005014 | 87 | 0 | 0.0 | 1.0 | 0.00 | 0.00 | 0.00 | 71 | 1011.0 |
| 20260905004014 | 88 | 0 | 0.0 | 0.0 | 0.00 | 0.00 | 0.00 | 68 | 1011.0 |
| 20260905003014 | 90 | 0 | 0.0 | 1.0 | 0.00 | 0.00 | 0.00 | 65 | 1010.9 |
| 20260905002014 | 91 | 148 | 0.0 | 1.0 | 0.00 | 0.00 | 0.00 | 60 | 1010.9 |
| 20260905001014 | 92 | 147 | 1.0 | 2.0 | 0.00 | 0.00 | 0.00 | 59 | 1011.0 |
| 20260905000013 | 92 | 0 | 0.0 | 2.0 | 0.00 | 0.00 | 0.00 | 58 | 1010.9 |
| 20260904235015 | 92 | 0 | 0.0 | 2.0 | 0.00 | 0.00 | 0.00 | 59 | 1010.9 |
| 20260904232013 | 92 | 145 | 1.0 | 2.0 | 0.00 | 0.00 | 0.00 | 57 | 1010.7 |
| 20260904231014 | 92 | 139 | 1.0 | 2.0 | 0.00 | 0.00 | 0.00 | 57 | 1010.9 |
| 20260904230014 | 93 | 143 | 1.0 | 3.0 | 0.00 | 0.00 | 0.00 | 59 | 1010.8 |
| 20260904225013 | 93 | 141 | 1.0 | 3.0 | 0.00 | 0.00 | 0.00 | 57 | 1010.8 |
| 20260904224015 | 93 | 143 | 1.0 | 3.0 | 0.00 | 0.00 | 0.00 | 56 | 1010.8 |
| 20260904223013 | 93 | 238 | 2.0 | 5.0 | 0.00 | 0.00 | 0.00 | 56 | 1010.8 |
| 20260904222014 | 92 | 216 | 1.0 | 5.0 | 0.00 | 0.00 | 0.00 | 57 | 1010.8 |
| 20260904220014 | 94 | 258 | 1.0 | 2.0 | 0.00 | 0.00 | 0.00 | 55 | 1010.8 |
| 20260904215013 | 94 | 238 | 2.0 | 7.0 | 0.00 | 0.00 | 0.00 | 56 | 1010.9 |
| 20260904214014 | 94 | 240 | 1.0 | 4.0 | 0.00 | 0.00 | 0.00 | 56 | 1010.9 |
| 20260904213013 | 94 | 140 | 1.0 | 3.0 | 0.00 | 0.00 | 0.00 | 55 | 1011.0 |
| 20260904212014 | 94 | 217 | 2.0 | 5.0 | 0.00 | 0.00 | 0.00 | 56 | 1011.2 |
| 20260904211014 | 94 | 253 | 1.0 | 6.0 | 0.00 | 0.00 | 0.00 | 56 | 1011.3 |
| 20260904210013 | 94 | 230 | 2.0 | 4.0 | 0.00 | 0.00 | 0.00 | 55 | 1011.4 |
| 20260904205014 | 93 | 264 | 3.0 | 7.0 | 0.00 | 0.00 | 0.00 | 55 | 1011.4 |
| 20260904204013 | 94 | 256 | 2.0 | 8.0 | 0.00 | 0.00 | 0.00 | 56 | 1011.5 |
| 20260904203013 | 93 | 275 | 2.0 | 6.0 | 0.00 | 0.00 | 0.00 | 58 | 1011.6 |
| 20260904200014 | 92 | 159 | 1.0 | 3.0 | 0.00 | 0.00 | 0.00 | 58 | 1012.3 |
| 20260904194013 | 92 | 195 | 1.0 | 2.0 | 0.00 | 0.00 | 0.00 | 60 | 1012.6 |
| 20260904193013 | 92 | 211 | 1.0 | 5.0 | 0.00 | 0.00 | 0.00 | 60 | 1012.6 |
| 20260904191016 | 91 | 209 | 2.0 | 5.0 | 0.00 | 0.00 | 0.00 | 58 | 1012.9 |
| 20260904190014 | 91 | 121 | 1.0 | 5.0 | 0.00 | 0.00 | 0.00 | 57 | 1013.0 |
| 20260904185013 | 91 | 176 | 2.0 | 3.0 | 0.00 | 0.00 | 0.00 | 59 | 1012.9 |
| 20260904184013 | 92 | 168 | 2.0 | 5.0 | 0.00 | 0.00 | 0.00 | 60 | 1013.0 |
| 20260904183013 | 91 | 128 | 2.0 | 5.0 | 0.00 | 0.00 | 0.00 | 59 | 1013.2 |
| 20260904182013 | 90 | 167 | 2.0 | 4.0 | 0.00 | 0.00 | 0.00 | 60 | 1013.3 |
| 20260904181013 | 90 | 190 | 2.0 | 5.0 | 0.00 | 0.00 | 0.00 | 59 | 1013.6 |
| 20260904180014 | 90 | 177 | 2.0 | 5.0 | 0.00 | 0.00 | 0.00 | 63 | 1013.6 |
| 20260904175014 | 90 | 203 | 2.0 | 5.0 | 0.00 | 0.00 | 0.00 | 61 | 1013.8 |
| 20260904173014 | 88 | 169 | 1.0 | 3.0 | 0.00 | 0.00 | 0.00 | 67 | 1014.0 |
| 20260904172013 | 88 | 156 | 2.0 | 4.0 | 0.00 | 0.00 | 0.00 | 67 | 1014.2 |
| 20260904171013 | 88 | 131 | 1.0 | 3.0 | 0.00 | 0.00 | 0.00 | 68 | 1014.5 |
| 20260904170014 | 88 | 130 | 2.0 | 4.0 | 0.00 | 0.00 | 0.00 | 67 | 1014.4 |
| 20260904165013 | 88 | 249 | 1.0 | 3.0 | 0.00 | 0.00 | 0.00 | 70 | 1014.4 |
| 20260904164013 | 87 | 143 | 1.0 | 5.0 | 0.00 | 0.00 | 0.00 | 72 | 1014.5 |